Home   Weather   Los Angeles   Past weeks
Flag for USA

Past Weather in Los Angeles, California, USA — Yesterday and Last 2 Weeks

Now
65 °F

Partly sunny.


Feels Like: 65 °F
Forecast: 63 / 56 °F
Wind: 3 mph from North

Location: Los Angeles / USC Campus Downtown

Current Time: Apr 4, 2020 at 7:11:08 pm

Latest Report: Apr 4, 2020 at 5:52 pm


Visibility: 10 mi

Pressure: 29.84 "Hg

Humidity: 56%

Dew Point: 49 °F

Location of Los AngelesLocation

Past Weather in Los Angeles — Graph

°F

Los Angeles Temperature Yesterday

Maximum temperature yesterday: 69 °F (at 2:52 pm)
Minimum temperature yesterday: 57 °F (at 6:52 am)
Average temperature yesterday: 63 °F

High & Low Weather Summary for the Past Weeks

 TemperatureHumidityPressure
High77 °F (Mar 31, 2:52 pm)87% (Mar 23, 12:52 am)30.24 "Hg (Mar 23, 12:52 am)
Low49 °F (Mar 26, 5:52 am)24% (Mar 27, 11:52 am)29.82 "Hg (Apr 1, 4:52 pm)
Average61 °F60%30.03 "Hg
* Reported Mar 20 5:52 pm — Apr 4 5:52 pm, Los Angeles. Weather by CustomWeather, © 2020

Note: Actual official high and low records may vary slightly from our data, if they occured in-between our weather recording intervals... More about our weather records

Los Angeles Weather History for the Previous 24 Hours

Scroll right to see more
 ConditionsComfort  
Time TempWeatherWind HumidityBarometerVisibility
5:52 pm
Sat, Apr 4
65 °FPartly sunny.3 mph56%29.84 "Hg10 mi
4:52 pm67 °FPartly sunny.6 mph53%29.84 "Hg10 mi
3:52 pm67 °FScattered clouds.8 mph53%29.85 "Hg10 mi
2:52 pm70 °FOvercast.6 mph49%29.85 "Hg10 mi
1:52 pm68 °FPartly sunny.3 mph53%29.86 "Hg9 mi
12:52 pm70 °FPartly sunny.No wind47%29.88 "Hg10 mi
11:15 am64 °FMostly cloudy.3 mph58%29.93 "Hg9 mi
10:52 am64 °FOvercast.3 mph58%29.93 "Hg9 mi
9:59 am63 °FMore clouds than sun.5 mph60%29.94 "Hg9 mi
9:52 am63 °FMostly cloudy.6 mph60%29.93 "Hg9 mi
9:12 am62 °FMore clouds than sun.5 mph62%29.93 "Hg9 mi
8:58 am63 °FMostly cloudy.5 mph60%29.93 "Hg9 mi
8:13 am61 °FOvercast.5 mph65%29.92 "Hg7 mi
7:52 am60 °FOvercast.5 mph67%29.90 "Hg8 mi
6:52 am59 °FMostly cloudy.No wind69%29.88 "Hg9 mi
6:14 am59 °FPassing clouds.No wind69%29.88 "Hg9 mi
5:52 am58 °FClear.No wind75%29.88 "Hg9 mi
4:52 am59 °FPassing clouds.3 mph72%29.88 "Hg9 mi
4:37 am59 °FPartly cloudy.3 mph72%29.89 "Hg9 mi
3:52 am59 °FMostly cloudy.3 mph72%29.89 "Hg9 mi
3:26 am59 °FPassing clouds.3 mph72%29.90 "Hg9 mi
2:52 am59 °FClear.No wind69%29.89 "Hg9 mi
1:52 am58 °FClear.No wind67%29.89 "Hg10 mi
12:52 am59 °FClear.No wind62%29.90 "Hg10 mi
11:52 pm
Fri, Apr 3
59 °FClear.No wind62%29.91 "Hg10 mi
10:52 pm60 °FClear.No wind65%29.92 "Hg10 mi
9:52 pm60 °FClear.No wind65%29.92 "Hg10 mi
8:52 pm61 °FClear.3 mph65%29.90 "Hg10 mi
7:52 pm63 °FClear.No wind60%29.88 "Hg10 mi
Weather by CustomWeather, © 2020

See weather overview

Advertising